Talkeetna, AK

8:40 AM AKDT on May 22, 2018 (GMT -0800)
Talkeetna

Weather History for PATK - December, 2012

Change the Weather History Date:

Friday, December 7, 2012

  Actual Average Record
Temperature  
Mean Temperature -2 °F -  
Max Temperature 8 °F 20 °F 44 °F (1960)
Min Temperature -13 °F 3 °F -35 °F (1975)
Degree Days  
Heating Degree Days 68    
Moisture  
Dew Point -12 °F    
Average Humidity 62    
Maximum Humidity 78    
Minimum Humidity 34    
Precipitation  
Precipitation 0.00 in - - ()
Sea Level Pressure  
Sea Level Pressure 29.95 in    
Wind  
Wind Speed 3 mph (NNE)    
Max Wind Speed 14 mph    
Max Gust Speed 17 mph    
Visibility 10 miles    
Events      
Averages and records for this station are not official NWS values.
T = Trace of Precipitation, MM = Missing Value Source: NWS Daily Summary

Daily Weather History Graph

Daily Weather History Graph

Search for Another Location

Airport or City:

Astronomy

Dec. 07, 2012 Rise Set
Actual Time 10:11 AM AKST 3:32 PM AKST
Civil Twilight 9:06 AM AKST 4:37 PM AKST
Nautical Twilight 8:04 AM AKST 5:39 PM AKST
Astronomical Twilight 7:09 AM AKST 6:34 PM AKST
Moon 1:50 AM AKST (12/7) 1:15 PM AKST (12/7)
Length of Visible Light 7h 30m
Length of Day
5h 21m
Last Quarter, 37% of the Moon is Illuminated
Dec 7
Last Quarter
Dec 12
New
Dec 19
First Quarter
Dec 28
Full
Jan 4
Last Quarter

Hourly Weather History & Observations

Time (AKST) Temp. Windchill Dew Point Humidity Pressure Visibility Wind Dir Wind Speed Gust Speed Precip Events Conditions
12:53 AM -9.9 °F - -15.0 °F 78% 29.93 in 10.0 mi Calm Calm - N/A   Clear
1:53 AM -9.9 °F - -15.0 °F 78% 29.94 in 10.0 mi Calm Calm - N/A   Clear
3:53 AM -11.0 °F - -16.1 °F 78% 29.94 in 10.0 mi Calm Calm - N/A   Clear
4:53 AM -11.9 °F - -17.0 °F 78% 29.94 in 10.0 mi Calm Calm - N/A   Clear
5:53 AM -11.9 °F - -17.0 °F 78% 29.94 in 10.0 mi Calm Calm - N/A   Clear
6:53 AM -11.9 °F -21.5 °F -18.0 °F 74% 29.94 in 10.0 mi ENE 3.5 mph - N/A   Clear
7:53 AM -13.0 °F -22.7 °F -18.9 °F 75% 29.94 in 10.0 mi ENE 3.5 mph - N/A   Clear
8:53 AM -11.9 °F -21.5 °F -18.0 °F 74% 29.95 in 10.0 mi ENE 3.5 mph - N/A   Clear
9:53 AM -11.9 °F -21.5 °F -17.0 °F 78% 29.96 in 10.0 mi ENE 3.5 mph - N/A   Clear
10:53 AM -11.9 °F -21.5 °F -17.0 °F 78% 29.96 in 10.0 mi ENE 3.5 mph - N/A   Clear
11:53 AM 1.9 °F -7.6 °F -9.0 °F 60% 29.96 in 10.0 mi NNW 4.6 mph - N/A   Clear
12:53 PM 6.1 °F -5.6 °F -8.0 °F 53% 29.96 in 10.0 mi North 6.9 mph - N/A   Clear
1:53 PM 7.0 °F -3.3 °F -7.1 °F 53% 29.95 in 10.0 mi North 5.8 mph - N/A   Clear
2:53 PM 8.1 °F 1.4 °F -7.1 °F 50% 29.95 in 10.0 mi North 3.5 mph - N/A   Clear
3:53 PM 7.0 °F -5.7 °F -7.1 °F 53% 29.94 in 10.0 mi North 8.1 mph - N/A   Clear
4:53 PM 7.0 °F -5.7 °F -7.1 °F 53% 29.94 in 10.0 mi North 8.1 mph - N/A   Clear
5:53 PM 6.1 °F -5.6 °F -7.1 °F 55% 29.95 in 10.0 mi North 6.9 mph - N/A   Clear
6:53 PM 7.0 °F -5.7 °F -7.1 °F 53% 29.95 in 10.0 mi North 8.1 mph 16.1 mph N/A   Clear
7:53 PM 7.0 °F -7.5 °F -8.0 °F 51% 29.96 in 10.0 mi North 10.4 mph - N/A   Clear
8:53 PM 7.0 °F -7.5 °F -8.0 °F 51% 29.96 in 10.0 mi NNE 10.4 mph - N/A   Clear
9:53 PM 8.1 °F -8.4 °F -8.0 °F 48% 29.97 in 10.0 mi NNE 13.8 mph - N/A   Clear
10:53 PM 8.1 °F -4.3 °F -8.0 °F 48% 29.98 in 10.0 mi NNE 8.1 mph - N/A   Clear
11:53 PM 8.1 °F -5.3 °F -8.0 °F 48% 29.98 in 10.0 mi NNE 9.2 mph 17.3 mph N/A   Clear